This is the latest recevied weather packets stored in our database for station/object M0UPS-13. If no packets are shown the sender has not sent any weather packets the latest 10 day(s).
| Time | Temp. | Humidity | Pressure | Rain* | Wind** | Luminosity | Snow |
|---|---|---|---|---|---|---|---|
| 1777980602 | 16.67° C | 51% | 1012.6 hPa | 0 mm | - | 307 W/m² | - |
| 1777980302 | 17.22° C | 48% | 1012.4 hPa | 0 mm | - | 647 W/m² | - |
| 1777980002 | 17.78° C | 48% | 1012.5 hPa | 0 mm | - | 656 W/m² | - |
| 1777979702 | 17.78° C | 52% | 1012.4 hPa | 0 mm | - | 449 W/m² | - |
| 1777979402 | 17.78° C | 52% | 1012.6 hPa | 0 mm | - | 426 W/m² | - |
| 1777979102 | 17.78° C | 50% | 1012.6 hPa | 0 mm | - | 341 W/m² | - |
| 1777978802 | 17.78° C | 54% | 1012.6 hPa | 0 mm | - | 739 W/m² | - |
| 1777978502 | 17.22° C | 53% | 1012.8 hPa | 0 mm | - | 684 W/m² | - |
| 1777978202 | 16.67° C | 55% | 1012.9 hPa | 0 mm | - | 778 W/m² | - |
| 1777977902 | 16.11° C | 51% | 1012.6 hPa | 0 mm | - | 543 W/m² | - |
| 1777977602 | 16.11° C | 51% | 1013 hPa | 0 mm | - | 479 W/m² | - |
| 1777977302 | 17.22° C | 50% | 1013 hPa | 0 mm | - | 404 W/m² | - |
| 1777977002 | 17.22° C | 56% | 1013 hPa | 0 mm | - | 840 W/m² | - |
| 1777976702 | 16.67° C | 56% | 1013.1 hPa | 0 mm | - | 520 W/m² | - |
| 1777976402 | 16.67° C | 58% | 1013 hPa | 0 mm | - | 321 W/m² | - |
| 1777976103 | 16.67° C | 57% | 1013 hPa | 0 mm | - | 302 W/m² | - |
| 1777975803 | 16.67° C | 59% | 1013.1 hPa | 0 mm | - | 284 W/m² | - |
| 1777975503 | 17.78° C | 53% | 1013.3 hPa | 0 mm | - | 281 W/m² | - |
| 1777975202 | 17.22° C | 56% | 1013 hPa | 0 mm | - | 745 W/m² | - |
| 1777974902 | 16.11° C | 59% | 1013.4 hPa | 0 mm | - | 866 W/m² | - |
| 1777974602 | 15.56° C | 62% | 1013.1 hPa | 0 mm | - | 308 W/m² | - |
| 1777974302 | 16.11° C | 60% | 1013.3 hPa | 0 mm | - | 468 W/m² | - |
| 1777974002 | 16.67° C | 59% | 1013.3 hPa | 0 mm | - | 306 W/m² | - |
| 1777973702 | 16.11° C | 63% | 1013.4 hPa | 0 mm | - | 697 W/m² | - |
| 1777973402 | 15.56° C | 63% | 1013.2 hPa | 0 mm | - | 677 W/m² | - |
* Rain latest hour (hover to see other rain measurements)
** Current wind speed in m/s (hover to see current wind gust speed)